This demonstration page uses our WeatherBlox Daily Observations layout. Learn more.

38.88101, -77.10428

Hourly Observations for January 2, 2020

Temp ( °F °C ) Dew Point ( °F °C ) Humidity (%) Winds ( mph kmh ) Pressure ( in mb ) Visibility ( mi km ) Precip ( " mm )
12:52 am 00:52 Partly Cloudy 34 1.1 27 -2.8 76 76 SW 6 9 29.96 1015 10 16.0934 0 0
1:52 am 01:52 Mostly Cloudy 35 1.7 27 -2.8 72 72 Calm 29.97 1015 10 16.0934 0 0
2:52 am 02:52 Mostly Cloudy 33 0.6 26 -3.3 75 75 Calm 29.98 1015 10 16.0934 0 0
3:52 am 03:52 Mostly Cloudy 34 1.1 27 -2.8 76 76 WSW 5 7 29.97 1015 10 16.0934 0 0
4:52 am 04:52 Mostly Cloudy 35 1.7 29 -1.7 78 78 Calm 29.98 1015 10 16.0934 0 0
5:52 am 05:52 Mostly Cloudy 33 0.6 27 -2.8 78 78 Calm 29.99 1016 10 16.0934 0 0
6:52 am 06:52 Mostly Cloudy 33 0.6 28 -2.2 82 82 Calm 30 1016 10 16.0934 0 0
7:52 am 07:52 Mostly Cloudy 33 0.6 28 -2.2 82 82 SSW 3 6 30.01 1016 10 16.0934 0 0
8:52 am 08:52 Mostly Cloudy 35 1.7 31 -0.6 85 85 S 3 6 30.03 1017 10 16.0934 0 0
9:52 am 09:52 Mostly Cloudy 38 3.3 33 0.6 83 83 S 6 9 30.02 1017 10 16.0934 0 0
10:52 am 10:52 Mostly Cloudy 40 4.4 34 1.1 79 79 SSE 9 15 30.01 1016 10 16.0934 0 0
11:52 am 11:52 Mostly Cloudy 44 6.7 34 1.1 68 68 S 9 15 29.97 1015 10 16.0934 0 0
12:52 pm 12:52 Mostly Cloudy 47 8.3 33 0.6 59 59 SSE 7 11 29.94 1014 10 16.0934 0 0
1:52 pm 13:52 Cloudy 50 10 35 1.7 57 57 S 7 11 29.93 1014 10 16.0934 0 0
2:52 pm 14:52 Mostly Cloudy 51 10.6 33 0.6 50 50 S 6 9 29.92 1013 10 16.0934 0 0
3:52 pm 15:52 Mostly Cloudy 50 10 33 0.6 52 52 SSE 3 6 29.93 1014 10 16.0934 0 0
4:52 pm 16:52 Mostly Cloudy 49 9.4 35 1.7 59 59 SSE 5 7 29.92 1013 10 16.0934 0 0
5:52 pm 17:52 Mostly Cloudy 52 11.1 33 0.6 49 49 SSW 6 9 29.91 1013 10 16.0934 0 0
6:52 pm 18:52 Mostly Cloudy 48 8.9 37 2.8 66 66 S 7 11 29.9 1013 10 16.0934 0 0
7:52 pm 19:52 Mostly Cloudy 50 10 35 1.7 57 57 SSW 6 9 29.91 1013 10 16.0934 0 0
8:52 pm 20:52 Mostly Cloudy 50 10 35 1.7 57 57 S 8 13 29.88 1012 10 16.0934 0 0
9:52 pm 21:52 Mostly Cloudy 53 11.7 32 0 45 45 SW 7 11 29.88 1012 10 16.0934 0 0
10:52 pm 22:52 Mostly Cloudy 53 11.7 32 0 45 45 SSW 6 9 29.9 1013 10 16.0934 0 0
11:52 pm 23:52 Cloudy 53 11.7 32 0 45 45 SSW 10 17 29.88 1012 10 16.0934 0 0

Powered by AerisWeather